| time (UTC) | temp C | wind direction | speed KPH | gust KPH | rain 1hr cm | rain 24hr cm | rain mn cm | humidity % | barometer mb |
| 20260507140204 | 7 | 221 | 8.0 | 16.1 | 0.00 | 0.43 | 0.00 | 83 | 1005.5 |
| 20260507134704 | 6 | 231 | 4.8 | 12.9 | 0.00 | 0.43 | 0.00 | 82 | 1005.5 |
| 20260507134204 | 6 | 214 | 4.8 | 14.5 | 0.00 | 0.46 | 0.00 | 85 | 1005.5 |
| 20260507132704 | 6 | 194 | 8.0 | 12.9 | 0.00 | 0.51 | 0.00 | 87 | 1005.6 |
| 20260507132204 | 6 | 197 | 8.0 | 16.1 | 0.00 | 0.51 | 0.00 | 87 | 1005.6 |
| 20260507130704 | 6 | 199 | 6.4 | 14.5 | 0.00 | 0.56 | 0.00 | 89 | 1005.7 |
| 20260507130204 | 6 | 196 | 6.4 | 16.1 | 0.00 | 0.56 | 0.00 | 88 | 1005.7 |
| 20260507124704 | 6 | 236 | 8.0 | 14.5 | 0.00 | 0.61 | 0.00 | 89 | 1005.7 |
| 20260507124204 | 6 | 196 | 8.0 | 16.1 | 0.00 | 0.61 | 0.00 | 90 | 1005.8 |
| 20260507122705 | 6 | 205 | 8.0 | 20.9 | 0.00 | 0.64 | 0.00 | 90 | 1005.6 |
| 20260507120704 | 7 | 211 | 6.4 | 12.9 | 0.00 | 0.71 | 0.00 | 89 | 1005.5 |
| 20260507120204 | 7 | 214 | 6.4 | 19.3 | 0.00 | 0.71 | 0.00 | 89 | 1005.5 |
| 20260507114704 | 6 | 221 | 8.0 | 16.1 | 0.00 | 0.76 | 0.00 | 90 | 1005.3 |
| 20260507114204 | 6 | 177 | 8.0 | 19.3 | 0.00 | 0.79 | 0.00 | 91 | 1005.2 |
| 20260507112704 | 6 | 175 | 9.7 | 16.1 | 0.00 | 0.81 | 0.00 | 91 | 1005.3 |
| 20260507112204 | 6 | 193 | 4.8 | 16.1 | 0.00 | 0.84 | 0.00 | 91 | 1005.4 |
| 20260507110703 | 6 | 196 | 8.0 | 12.9 | 0.00 | 0.84 | 0.00 | 92 | 1005.3 |
| 20260507110204 | 6 | 190 | 8.0 | 16.1 | 0.00 | 0.84 | 0.00 | 92 | 1005.3 |
| 20260507104704 | 6 | 183 | 6.4 | 11.3 | 0.00 | 0.89 | 0.00 | 92 | 1005.4 |
| 20260507102704 | 6 | 233 | 4.8 | 11.3 | 0.00 | 0.89 | 0.00 | 93 | 1005.6 |
| 20260507102204 | 6 | 216 | 8.0 | 12.9 | 0.00 | 0.89 | 0.00 | 92 | 1005.5 |
| 20260507100704 | 5 | 179 | 4.8 | 12.9 | 0.00 | 0.89 | 0.00 | 93 | 1005.4 |
| 20260507100204 | 5 | 185 | 8.0 | 16.1 | 0.00 | 0.89 | 0.00 | 93 | 1005.3 |
| 20260507094704 | 5 | 178 | 6.4 | 14.5 | 0.00 | 0.89 | 0.00 | 92 | 1005.1 |
| 20260507094204 | 5 | 181 | 4.8 | 9.7 | 0.00 | 0.89 | 0.00 | 92 | 1005.1 |
| 20260507092704 | 5 | 182 | 4.8 | 11.3 | 0.00 | 0.89 | 0.00 | 92 | 1005.0 |
| 20260507092203 | 5 | 188 | 3.2 | 11.3 | 0.00 | 0.89 | 0.00 | 92 | 1005.2 |
| 20260507090704 | 5 | 177 | 4.8 | 9.7 | 0.00 | 0.89 | 0.00 | 92 | 1005.1 |
| 20260507090204 | 5 | 175 | 3.2 | 12.9 | 0.00 | 0.89 | 0.00 | 92 | 1005.2 |
| 20260507084704 | 5 | 181 | 6.4 | 12.9 | 0.00 | 0.89 | 0.00 | 92 | 1005.4 |
| 20260507082704 | 5 | 183 | 6.4 | 12.9 | 0.00 | 0.89 | 0.00 | 92 | 1005.6 |
| 20260507080704 | 5 | 178 | 4.8 | 8.0 | 0.00 | 0.89 | 0.00 | 92 | 1005.5 |
| 20260507080204 | 5 | 177 | 4.8 | 14.5 | 0.00 | 0.89 | 0.00 | 92 | 1005.5 |
| 20260507074705 | 5 | 176 | 6.4 | 16.1 | 0.00 | 0.89 | 0.00 | 92 | 1005.6 |
| 20260507074205 | 5 | 184 | 4.8 | 19.3 | 0.00 | 0.89 | 0.00 | 92 | 1005.6 |
| 20260507072706 | 5 | 173 | 4.8 | 11.3 | 0.00 | 0.89 | 0.00 | 92 | 1005.5 |
| 20260507072206 | 5 | 172 | 4.8 | 11.3 | 0.00 | 0.89 | 0.00 | 92 | 1005.5 |
| 20260507070705 | 5 | 173 | 4.8 | 12.9 | 0.00 | 0.89 | 0.00 | 92 | 1005.5 |
| 20260507070206 | 5 | 172 | 4.8 | 14.5 | 0.00 | 0.89 | 0.00 | 92 | 1005.5 |
| 20260507064705 | 5 | 176 | 3.2 | 8.0 | 0.00 | 0.89 | 0.00 | 92 | 1005.6 |
| 20260507064205 | 5 | 177 | 4.8 | 11.3 | 0.00 | 0.89 | 0.00 | 92 | 1005.6 |
| 20260507062705 | 5 | 176 | 4.8 | 9.7 | 0.00 | 0.89 | 0.00 | 92 | 1005.7 |
| 20260507062205 | 5 | 177 | 4.8 | 11.3 | 0.00 | 0.89 | 0.00 | 92 | 1005.7 |
| 20260507060705 | 5 | 173 | 3.2 | 8.0 | 0.00 | 0.89 | 0.00 | 92 | 1005.8 |
| 20260507060204 | 5 | 173 | 4.8 | 9.7 | 0.00 | 0.89 | 0.00 | 92 | 1005.8 |
| 20260507054705 | 5 | 174 | 4.8 | 9.7 | 0.00 | 0.89 | 0.00 | 91 | 1006.0 |
| 20260507054205 | 5 | 174 | 4.8 | 12.9 | 0.00 | 0.89 | 0.00 | 91 | 1006.0 |
| 20260507052705 | 5 | 176 | 4.8 | 11.3 | 0.00 | 0.89 | 0.00 | 91 | 1006.4 |
| 20260507052204 | 5 | 174 | 6.4 | 16.1 | 0.00 | 0.89 | 0.00 | 91 | 1006.5 |
| 20260507050705 | 5 | 176 | 4.8 | 8.0 | 0.00 | 0.89 | 0.00 | 91 | 1006.6 |
| 20260507050205 | 5 | 177 | 4.8 | 9.7 | 0.00 | 0.89 | 0.00 | 91 | 1006.7 |
| 20260507044705 | 5 | 178 | 3.2 | 8.0 | 0.00 | 0.89 | 0.00 | 91 | 1006.8 |
| 20260507044205 | 5 | 178 | 4.8 | 9.7 | 0.00 | 0.89 | 0.00 | 91 | 1006.9 |
| 20260507042705 | 5 | 181 | 3.2 | 8.0 | 0.00 | 0.89 | 0.00 | 91 | 1007.0 |
| 20260507042206 | 5 | 182 | 4.8 | 11.3 | 0.00 | 0.89 | 0.00 | 91 | 1007.0 |
| 20260507040705 | 5 | 198 | 3.2 | 8.0 | 0.00 | 0.89 | 0.00 | 91 | 1007.2 |
| 20260507040205 | 5 | 198 | 4.8 | 9.7 | 0.00 | 0.89 | 0.00 | 91 | 1007.2 |
| 20260507034705 | 6 | 200 | 4.8 | 9.7 | 0.00 | 0.89 | 0.89 | 91 | 1007.2 |
| 20260507034205 | 6 | 207 | 3.2 | 9.7 | 0.00 | 0.89 | 0.89 | 91 | 1007.2 |
| 20260507032705 | 6 | 230 | 3.2 | 4.8 | 0.00 | 0.89 | 0.89 | 91 | 1007.3 |
| 20260507032205 | 6 | 231 | 3.2 | 4.8 | 0.00 | 0.89 | 0.89 | 91 | 1007.3 |
| 20260507030705 | 6 | 231 | 1.6 | 3.2 | 0.00 | 0.89 | 0.89 | 90 | 1007.3 |
| 20260507030205 | 6 | 231 | 1.6 | 4.8 | 0.00 | 0.89 | 0.89 | 91 | 1007.3 |
| 20260507024705 | 6 | 231 | 1.6 | 3.2 | 0.00 | 0.89 | 0.89 | 90 | 1007.4 |
| 20260507024204 | 6 | 231 | 3.2 | 4.8 | 0.00 | 0.89 | 0.89 | 90 | 1007.5 |
| 20260507022205 | 6 | 235 | 1.6 | 3.2 | 0.00 | 0.91 | 0.89 | 90 | 1007.7 |
| 20260507020705 | 6 | 235 | 0.0 | 0.0 | 0.00 | 0.91 | 0.89 | 90 | 1007.7 |
| 20260507020205 | 6 | 235 | 1.6 | 3.2 | 0.00 | 0.91 | 0.89 | 90 | 1007.7 |
| 20260507014705 | 6 | 235 | 1.6 | 3.2 | 0.00 | 0.91 | 0.89 | 90 | 1007.7 |
| 20260507014204 | 6 | 235 | 1.6 | 4.8 | 0.00 | 0.91 | 0.89 | 90 | 1007.8 |
| 20260507012705 | 6 | 235 | 3.2 | 4.8 | 0.00 | 0.91 | 0.89 | 90 | 1007.8 |
| 20260507012205 | 6 | 235 | 1.6 | 3.2 | 0.00 | 0.91 | 0.89 | 90 | 1007.7 |
| 20260507010705 | 6 | 235 | 1.6 | 3.2 | 0.00 | 0.91 | 0.89 | 89 | 1007.6 |
| 20260507010205 | 6 | 235 | 1.6 | 4.8 | 0.00 | 0.91 | 0.89 | 89 | 1007.5 |
| 20260507004705 | 6 | 235 | 1.6 | 3.2 | 0.00 | 0.91 | 0.89 | 88 | 1007.4 |
| 20260507004205 | 6 | 235 | 1.6 | 1.6 | 0.00 | 0.91 | 0.89 | 88 | 1007.4 |
| 20260507002705 | 7 | 235 | 0.0 | 1.6 | 0.00 | 0.91 | 0.89 | 87 | 1007.4 |
| 20260507002205 | 7 | 235 | 1.6 | 1.6 | 0.00 | 0.91 | 0.89 | 87 | 1007.4 |
| 20260507000704 | 7 | 235 | 1.6 | 3.2 | 0.00 | 0.91 | 0.89 | 86 | 1007.1 |
| 20260507000205 | 7 | 235 | 1.6 | 4.8 | 0.00 | 0.91 | 0.89 | 85 | 1007.1 |
| 20260506234705 | 7 | 235 | 3.2 | 4.8 | 0.00 | 0.91 | 0.89 | 85 | 1007.1 |
| 20260506234205 | 7 | 235 | 3.2 | 4.8 | 0.00 | 0.91 | 0.89 | 85 | 1007.0 |
| 20260506232705 | 7 | 235 | 4.8 | 4.8 | 0.00 | 0.91 | 0.89 | 85 | 1007.0 |
| 20260506232205 | 7 | 235 | 3.2 | 4.8 | 0.00 | 0.91 | 0.89 | 85 | 1006.9 |
| 20260506230705 | 7 | 235 | 3.2 | 4.8 | 0.00 | 0.91 | 0.89 | 85 | 1006.9 |
| 20260506230205 | 7 | 235 | 3.2 | 4.8 | 0.00 | 0.91 | 0.89 | 84 | 1007.0 |
| 20260506224705 | 7 | 235 | 3.2 | 4.8 | 0.00 | 0.91 | 0.89 | 85 | 1006.8 |
| 20260506224205 | 7 | 235 | 3.2 | 8.0 | 0.00 | 0.91 | 0.89 | 85 | 1007.0 |
| 20260506222705 | 7 | 235 | 4.8 | 8.0 | 0.00 | 0.91 | 0.89 | 84 | 1006.9 |
| 20260506222205 | 7 | 234 | 3.2 | 8.0 | 0.00 | 0.91 | 0.89 | 84 | 1006.9 |
| 20260506220705 | 7 | 234 | 3.2 | 4.8 | 0.00 | 0.91 | 0.89 | 84 | 1007.0 |
| 20260506220205 | 7 | 234 | 3.2 | 4.8 | 0.00 | 0.91 | 0.89 | 84 | 1007.0 |
| 20260506214705 | 7 | 234 | 3.2 | 4.8 | 0.00 | 0.91 | 0.89 | 84 | 1006.9 |
| 20260506214205 | 7 | 234 | 3.2 | 8.0 | 0.00 | 0.91 | 0.89 | 84 | 1007.0 |
| 20260506212704 | 8 | 234 | 4.8 | 8.0 | 0.00 | 0.91 | 0.89 | 84 | 1007.1 |
| 20260506212205 | 8 | 234 | 3.2 | 9.7 | 0.00 | 0.91 | 0.89 | 84 | 1007.1 |
| 20260506210704 | 8 | 232 | 3.2 | 4.8 | 0.00 | 0.91 | 0.89 | 82 | 1007.1 |
| 20260506210205 | 8 | 232 | 4.8 | 4.8 | 0.00 | 0.91 | 0.89 | 82 | 1007.1 |
| 20260506204704 | 8 | 232 | 3.2 | 4.8 | 0.00 | 0.91 | 0.89 | 83 | 1007.0 |
| 20260506204204 | 7 | 232 | 3.2 | 8.0 | 0.00 | 0.91 | 0.89 | 82 | 1007.0 |
| 20260506202704 | 8 | 230 | 4.8 | 8.0 | 0.00 | 0.91 | 0.89 | 82 | 1007.1 |
| 20260506202204 | 8 | 229 | 4.8 | 8.0 | 0.00 | 0.91 | 0.89 | 83 | 1007.1 |
| 20260506200705 | 8 | 226 | 6.4 | 9.7 | 0.00 | 0.91 | 0.89 | 83 | 1007.1 |
| 20260506200205 | 8 | 166 | 3.2 | 4.8 | 0.00 | 0.91 | 0.89 | 84 | 1007.1 |
| 20260506194704 | 8 | 164 | 3.2 | 4.8 | 0.00 | 0.91 | 0.89 | 84 | 1007.2 |
| 20260506194204 | 8 | 164 | 0.0 | 3.2 | 0.00 | 0.91 | 0.89 | 83 | 1007.2 |
| 20260506192704 | 8 | 164 | 1.6 | 4.8 | 0.00 | 0.91 | 0.89 | 84 | 1007.1 |
| 20260506192204 | 8 | 164 | 1.6 | 4.8 | 0.00 | 0.91 | 0.89 | 85 | 1007.1 |
| 20260506190705 | 8 | 164 | 0.0 | 4.8 | 0.03 | 0.91 | 0.89 | 86 | 1006.9 |
| 20260506190205 | 7 | 164 | 1.6 | 4.8 | 0.03 | 0.91 | 0.89 | 87 | 1007.1 |
| 20260506184704 | 7 | 177 | 3.2 | 4.8 | 0.03 | 0.91 | 0.89 | 87 | 1007.2 |
| 20260506184204 | 7 | 222 | 0.0 | 4.8 | 0.03 | 0.91 | 0.89 | 87 | 1007.4 |
| 20260506182705 | 7 | 226 | 0.0 | 1.6 | 0.03 | 0.91 | 0.89 | 88 | 1007.5 |
| 20260506182205 | 7 | 226 | 1.6 | 4.8 | 0.03 | 0.91 | 0.89 | 88 | 1007.5 |
| 20260506180705 | 7 | 227 | 1.6 | 4.8 | 0.03 | 0.89 | 0.89 | 89 | 1007.8 |
| 20260506180204 | 7 | 227 | 1.6 | 4.8 | 0.03 | 0.89 | 0.89 | 89 | 1007.8 |
| 20260506174705 | 7 | 225 | 1.6 | 3.2 | 0.05 | 0.89 | 0.89 | 89 | 1008.0 |
| 20260506174204 | 7 | 225 | 3.2 | 4.8 | 0.05 | 0.89 | 0.89 | 89 | 1008.0 |
| 20260506172704 | 7 | 225 | 1.6 | 3.2 | 0.08 | 0.99 | 0.89 | 89 | 1007.9 |
| 20260506172204 | 6 | 225 | 3.2 | 4.8 | 0.10 | 1.02 | 0.89 | 89 | 1008.1 |
| 20260506170704 | 6 | 224 | 3.2 | 4.8 | 0.10 | 1.17 | 0.86 | 90 | 1008.3 |
| 20260506170204 | 6 | 224 | 1.6 | 4.8 | 0.13 | 1.24 | 0.86 | 90 | 1008.4 |
| 20260506164704 | 6 | 224 | 1.6 | 4.8 | 0.13 | 1.24 | 0.84 | 90 | 1008.5 |
| 20260506164205 | 6 | 224 | 3.2 | 4.8 | 0.10 | 1.22 | 0.81 | 90 | 1008.6 |
| 20260506162704 | 6 | 224 | 1.6 | 3.2 | 0.13 | 1.19 | 0.79 | 90 | 1008.8 |
| 20260506162206 | 6 | 224 | 1.6 | 4.8 | 0.13 | 1.17 | 0.79 | 90 | 1008.8 |
| 20260506160705 | 6 | 224 | 0.0 | 1.6 | 0.13 | 1.17 | 0.76 | 90 | 1008.8 |
| 20260506160205 | 6 | 224 | 0.0 | 3.2 | 0.13 | 1.14 | 0.74 | 89 | 1008.8 |
| 20260506154704 | 6 | 224 | 1.6 | 3.2 | 0.15 | 1.12 | 0.71 | 88 | 1008.9 |
| 20260506154204 | 6 | 224 | 1.6 | 4.8 | 0.15 | 1.12 | 0.71 | 89 | 1009.0 |
| 20260506152704 | 6 | 224 | 1.6 | 3.2 | 0.15 | 1.09 | 0.69 | 90 | 1009.1 |
| 20260506152205 | 6 | 224 | 0.0 | 4.8 | 0.15 | 1.07 | 0.66 | 89 | 1009.2 |
| 20260506150705 | 6 | 224 | 3.2 | 4.8 | 0.15 | 1.04 | 0.64 | 89 | 1009.2 |
| 20260506150204 | 6 | 211 | 3.2 | 4.8 | 0.15 | 1.02 | 0.61 | 90 | 1009.1 |
| 20260506144704 | 6 | 200 | 1.6 | 4.8 | 0.13 | 0.99 | 0.58 | 91 | 1009.1 |
| 20260506144204 | 6 | 200 | 3.2 | 4.8 | 0.13 | 0.97 | 0.56 | 91 | 1009.2 |
| 20260506142704 | 6 | 198 | 0.0 | 3.2 | 0.13 | 0.91 | 0.51 | 91 | 1009.3 |
| 20260506140705 | 6 | 198 | 0.0 | 3.2 | 0.15 | 0.89 | 0.48 | 91 | 1009.3 |